Wind_Speed
5 4 4 5 5 5 6 6 6 6 6 6 6 6 6 6 6 6 6 6 6 6 7 8 8 8 9 9 9 10 10 10 10 11 11 11 11 12 12 12 12 12 12
5 5 6 5 5 6 6 6 7 7 7 7 6 6 6 6 7 6 6 7 7 7 8 8 8 9 9 9 10 10 10 10 10 10 11 11 12 12 12 12 12 13 13
5 6 6 6 6 6 6 7 7 7 8 8 7 7 7 7 7 7 7 7 8 8 8 8 8 9 9 9 10 10 10 11 11 11 11 11 12 13 13 13 13 14 14
5 6 6 6 6 7 7 8 8 8 8 8 8 8 8 8 8 8 8 8 8 9 9 9 9 10 10 10 11 11 11 11 12 12 12 12 13 13 14 14 14 15 15
6 6 7 7 7 8 8 8 8 9 8 8 9 9 9 9 9 9 9 9 9 9 9 10 10 11 11 12 12 12 12 12 13 13 13 13 14 14 15 15 15 16 16
7 7 8 8 8 8 8 8 9 9 9 9 9 10 10 10 10 10 10 10 10 10 10 10 11 12 12 12 12 12 13 13 14 14 14 14 14 15 15 16 16 16 16
8 8 8 9 9 9 9 10 10 10 10 10 10 10 11 11 11 11 11 11 11 11 12 12 12 12 12 13 13 14 14 15 15 15 16 16 16 16 16 16 16 16 16
8 8 8 9 9 9 10 10 10 10 10 10 10 10 11 11 11 12 12 12 11 11 12 12 13 13 13 14 14 15 15 16 16 16 17 17 17 17 16 16 16 16 16
9 9 9 9 9 9 10 10 10 10 10 10 10 10 11 11 12 12 12 11 11 11 12 12 12 13 14 15 15 15 16 16 16 16 16 17 17 17 17 17 16 16 17
10 10 10 11 10 10 11 11 11 11 11 11 11 11 12 12 12 12 12 12 12 12 13 13 14 15 15 15 15 16 16 16 16 16 15 16 16 16 16 17 17 17 17
11 11 11 11 11 11 11 12 12 12 12 12 12 12 12 13 13 12 12 12 13 13 14 14 15 15 15 15 15 15 15 15 15 16 15 15 15 15 16 16 17 17 18
12 11 11 12 12 12 12 12 13 13 13 13 13 13 13 13 13 13 13 13 14 14 14 14 14 15 15 15 15 15 15 15 15 15 16 15 15 15 15 17 17 17 18
12 13 13 13 13 14 14 14 14 14 14 15 15 15 14 14 14 14 14 14 15 15 15 15 14 14 15 15 16 16 15 15 15 15 16 16 16 16 16 17 17 17 18
14 14 14 15 15 15 15 15 15 15 15 16 15 15 15 15 15 15 15 16 15 16 15 15 15 15 15 15 16 16 16 16 17 17 17 17 17 17 17 18 18 18 19
15 15 15 16 16 16 16 16 16 15 16 16 16 15 15 16 16 16 16 16 16 16 16 16 16 16 16 16 16 16 16 17 18 18 18 19 19 19 19 19 19 19 19
16 15 16 16 16 16 16 17 16 16 17 17 16 16 16 16 16 16 16 16 16 17 17 17 17 16 16 17 17 17 18 18 19 19 19 20 20 19 19 19 20 20 21
17 16 17 17 17 17 17 17 17 17 17 17 17 17 17 17 16 16 16 16 17 17 17 18 17 16 17 18 18 18 19 19 20 20 20 20 20 20 20 20 20 21 21
18 18 18 19 19 18 19 19 19 18 18 18 18 18 18 17 17 17 17 17 17 18 17 17 17 17 18 19 19 19 19 20 20 20 20 21 21 21 21 21 21 22 22
20 20 21 21 21 20 20 20 20 19 19 19 19 19 19 19 18 18 18 18 18 18 18 18 19 19 19 19 20 20 20 20 20 21 21 21 21 22 22 22 22 23 23
22 22 23 23 22 21 21 21 20 20 20 20 20 20 20 19 19 19 19 19 19 19 20 20 20 20 20 20 20 21 21 21 21 22 23 22 22 23 23 23 23 23 24
24 24 24 24 23 23 23 22 22 22 22 22 21 21 21 21 21 21 21 21 21 21 21 21 20 20 21 21 21 22 22 23 23 24 24 24 24 24 25 25 25 25 26
26 25 25 25 25 24 24 24 24 24 24 24 23 23 22 23 23 23 22 22 22 22 22 22 21 22 22 23 23 24 24 24 24 25 25 25 26 25 25 25 26 26 26
27 27 27 27 26 26 25 25 25 25 25 25 25 25 24 24 24 24 24 24 24 24 24 24 24 24 25 25 26 26 25 25 25 25 26 26 27 26 26 26 26 26 26
29 29 29 28 28 28 27 27 27 27 27 26 27 26 26 26 26 26 26 26 26 27 27 26 26 26 26 26 27 27 26 26 27 26 26 27 27 27 27 27 27 28 27
31 31 30 30 30 29 29 29 29 29 28 28 28 28 28 28 28 28 28 28 28 28 28 28 28 27 26 26 27 27 27 27 27 27 27 27 27 28 28 28 28 29 29
32 32 32 32 31 31 30 30 30 30 30 30 30 30 30 30 30 30 30 30 30 30 30 30 29 28 27 27 28 28 28 28 29 29 28 28 29 29 29 29 30 30 30
Wind_Direction
325 319 317 317 313 310 311 314 314 313 313 312 309 307 309 303 300 294 287 283 283 278 276 273 273 264 260 260 259 259 258 256 256 255 253 253 254 252 253 255 256 259 263
325 320 320 318 314 309 308 311 313 312 311 309 307 305 306 306 304 296 285 280 282 280 279 275 272 267 265 263 260 260 260 259 258 257 255 256 257 255 254 257 260 262 264
323 321 319 314 310 308 306 307 306 306 308 305 302 298 298 299 299 296 294 290 285 281 281 279 273 271 272 268 264 263 263 262 260 258 255 256 257 258 257 259 262 263 263
318 316 313 311 307 307 306 302 300 300 301 299 297 296 296 297 296 294 291 288 286 283 281 279 277 276 274 273 270 267 264 263 261 259 260 261 262 261 259 260 262 264 265
314 313 311 309 307 304 302 300 299 302 301 296 294 294 294 293 293 292 289 286 285 282 282 281 279 278 275 273 272 269 264 262 262 262 262 264 265 264 263 262 264 265 267
310 310 309 309 308 303 302 301 300 302 303 301 298 295 294 292 290 290 290 288 286 284 282 282 281 278 275 274 273 271 266 265 266 266 264 264 265 266 263 262 264 267 267
305 302 302 303 304 304 305 303 301 300 300 301 300 297 296 294 291 288 288 286 283 285 283 283 282 280 276 277 275 275 272 269 269 269 267 266 266 265 264 264 265 265 265
305 302 298 300 300 301 304 303 300 298 297 298 298 297 296 296 296 293 288 284 281 282 283 283 282 280 277 276 276 276 275 271 270 270 268 267 266 265 265 265 265 265 265
308 304 300 298 297 298 300 301 301 299 297 298 296 297 298 298 297 297 292 285 280 280 281 282 282 281 279 279 278 279 279 275 272 273 270 267 268 266 264 263 264 266 265
309 307 303 299 296 296 294 295 297 297 295 294 295 297 298 297 296 294 292 289 286 283 281 281 283 282 280 278 277 280 281 277 274 274 274 270 270 267 264 264 264 265 266
304 304 302 300 298 296 293 292 293 295 295 291 289 293 295 294 294 294 291 288 287 285 284 284 285 284 281 278 278 279 278 276 274 274 273 275 270 266 265 266 266 266 267
302 302 301 298 296 294 293 291 290 291 290 289 289 290 291 292 291 291 290 289 287 285 285 285 285 284 283 279 279 280 277 276 277 274 273 274 271 267 267 266 266 266 267
298 298 298 296 293 293 293 292 289 288 288 289 291 290 290 289 289 288 288 287 285 283 284 285 284 284 284 283 283 282 279 278 278 277 275 273 272 270 271 270 267 265 268
296 295 293 291 291 292 292 292 291 290 288 288 290 290 291 290 290 289 288 285 283 282 283 283 284 284 283 283 283 282 279 279 279 279 277 275 276 275 276 276 274 273 272
293 295 294 290 290 291 290 290 291 292 291 290 290 290 289 290 289 288 287 285 284 283 282 283 283 283 282 282 283 281 279 278 279 279 280 280 278 277 276 276 276 276 274
290 292 294 292 291 291 290 291 291 291 292 291 291 289 290 291 290 288 286 284 284 284 283 282 281 280 280 282 283 280 279 279 278 279 280 281 280 278 277 276 276 278 277
286 290 291 291 290 289 290 289 288 287 288 289 289 288 288 287 287 287 286 283 283 284 284 282 281 280 279 280 281 280 280 281 281 280 280 281 280 279 279 277 277 278 278
284 288 288 288 287 286 287 286 285 285 285 285 286 286 286 286 286 287 286 284 284 285 285 284 281 280 279 279 279 280 281 281 282 281 280 279 279 279 279 278 277 277 276
285 288 287 287 286 285 284 284 284 284 284 284 284 283 282 283 285 286 285 283 284 284 285 284 280 278 279 278 280 281 281 281 280 281 279 279 279 279 279 279 279 277 276
283 285 284 283 283 282 281 282 283 283 284 285 286 284 282 282 283 285 283 282 282 283 283 283 281 279 278 278 281 283 283 281 279 279 278 279 280 279 279 279 279 278 277
280 282 282 282 281 280 279 279 280 282 282 284 284 284 283 283 282 282 282 281 281 282 284 283 282 281 279 280 282 283 282 281 279 279 279 278 279 280 279 279 279 279 277
279 279 279 279 279 279 279 278 278 279 280 281 282 281 281 281 281 280 280 280 280 282 283 283 283 281 280 281 283 283 281 281 280 279 280 280 280 280 280 280 279 279 279
277 277 277 277 277 278 278 278 278 279 279 279 279 279 279 280 279 279 279 278 279 281 282 282 282 281 280 281 282 283 282 280 280 279 278 279 280 280 280 281 281 281 280
276 276 276 276 276 277 276 276 276 277 278 278 278 278 278 278 278 278 278 279 280 281 281 282 282 281 279 280 282 282 283 282 281 280 279 279 279 279 280 280 281 281 281
275 275 274 275 276 276 275 275 276 276 277 277 277 276 277 277 278 278 279 279 281 281 282 282 283 282 279 281 282 281 282 283 283 280 279 279 280 280 280 280 280 280 280
275 275 275 275 275 275 274 274 275 275 276 276 276 275 276 277 278 278 278 278 280 281 281 282 282 282 280 282 282 282 282 282 282 281 281 280 280 280 279 279 279 279 279
Height
5853 5852 5852 5851 5850 5849 5848 5847 5846 5845 5844 5843 5842 5841 5840 5840 5839 5838 5838 5838 5837 5837 5837 5837 5837 5837 5837 5837 5838 5838 5838 5838 5839 5839 5840 5840 5840 5840 5840 5841 5841 5841 5841
5852 5851 5850 5849 5848 5847 5846 5845 5845 5844 5843 5842 5841 5840 5839 5838 5837 5836 5836 5836 5835 5835 5835 5835 5834 5834 5835 5835 5835 5835 5835 5835 5835 5836 5836 5836 5837 5837 5837 5837 5838 5838 5838
5850 5849 5848 5847 5847 5846 5845 5844 5843 5842 5841 5840 5839 5838 5837 5836 5835 5835 5834 5833 5833 5833 5832 5832 5832 5832 5832 5832 5832 5832 5832 5832 5832 5832 5833 5833 5833 5833 5834 5834 5834 5834 5834
5848 5847 5847 5846 5845 5844 5843 5842 5841 5840 5839 5838 5837 5836 5835 5834 5833 5833 5832 5831 5831 5830 5830 5829 5829 5829 5829 5829 5829 5829 5828 5829 5829 5829 5829 5830 5830 5830 5830 5830 5830 5830 5830
5847 5846 5845 5844 5843 5842 5841 5840 5839 5837 5836 5835 5834 5833 5833 5832 5831 5830 5830 5829 5828 5827 5827 5827 5826 5826 5826 5826 5825 5825 5825 5825 5825 5825 5825 5825 5825 5826 5826 5826 5826 5826 5826
5845 5844 5843 5842 5841 5840 5838 5837 5836 5835 5834 5833 5832 5831 5830 5829 5828 5828 5827 5826 5825 5825 5824 5823 5823 5823 5822 5822 5822 5821 5821 5821 5821 5821 5821 5821 5821 5821 5821 5821 5821 5821 5821
5842 5841 5840 5839 5838 5837 5836 5835 5834 5833 5831 5830 5829 5828 5827 5826 5826 5825 5824 5823 5822 5821 5821 5820 5819 5819 5818 5818 5818 5817 5817 5817 5817 5817 5816 5816 5816 5816 5816 5816 5817 5816 5816
5840 5839 5838 5837 5836 5835 5833 5832 5831 5830 5829 5828 5827 5826 5825 5824 5822 5821 5820 5819 5819 5818 5817 5817 5816 5815 5814 5814 5814 5813 5813 5812 5812 5812 5811 5811 5811 5811 5811 5811 5811 5811 5811
5837 5836 5835 5834 5833 5832 5831 5829 5828 5827 5826 5825 5824 5823 5821 5820 5819 5818 5817 5816 5815 5815 5814 5813 5812 5811 5810 5810 5809 5808 5808 5807 5807 5807 5806 5806 5806 5806 5806 5806 5806 5807 5806
5834 5833 5831 5830 5830 5828 5827 5826 5825 5824 5823 5822 5821 5819 5818 5817 5816 5814 5813 5812 5812 5811 5810 5809 5808 5807 5806 5805 5804 5804 5803 5803 5802 5802 5801 5801 5801 5800 5800 5801 5801 5801 5801
5831 5830 5829 5828 5826 5825 5824 5823 5822 5821 5820 5818 5817 5816 5815 5813 5812 5811 5810 5809 5808 5807 5805 5804 5803 5802 5801 5801 5800 5799 5799 5798 5798 5797 5796 5796 5795 5795 5795 5795 5795 5795 5795
5827 5826 5825 5824 5823 5822 5821 5820 5819 5817 5816 5815 5814 5812 5811 5809 5808 5807 5806 5805 5803 5802 5801 5800 5799 5798 5797 5796 5796 5795 5794 5794 5793 5792 5792 5791 5791 5790 5790 5790 5790 5790 5790
5824 5823 5822 5821 5820 5818 5817 5816 5815 5813 5812 5811 5809 5808 5807 5805 5804 5802 5801 5800 5799 5798 5797 5796 5794 5793 5792 5792 5791 5791 5790 5789 5789 5788 5787 5787 5786 5786 5785 5785 5785 5784 5784
5820 5819 5818 5817 5816 5814 5813 5811 5810 5809 5807 5806 5805 5803 5802 5800 5799 5798 5796 5795 5794 5793 5792 5791 5790 5789 5788 5787 5787 5786 5785 5785 5784 5783 5783 5782 5781 5781 5780 5780 5779 5779 5778
5816 5815 5814 5812 5811 5810 5808 5807 5806 5804 5803 5801 5800 5798 5797 5796 5794 5793 5791 5790 5789 5788 5787 5786 5785 5784 5783 5783 5782 5781 5780 5780 5779 5778 5778 5777 5776 5775 5775 5774 5774 5773 5773
5811 5810 5809 5808 5806 5805 5803 5802 5801 5799 5798 5796 5795 5793 5792 5790 5789 5788 5786 5785 5784 5783 5782 5781 5780 5779 5778 5777 5777 5776 5775 5774 5774 5773 5772 5771 5771 5770 5769 5768 5768 5767 5767
5806 5805 5804 5803 5802 5800 5798 5797 5795 5794 5793 5791 5790 5788 5787 5785 5784 5782 5781 5780 5779 5778 5777 5776 5775 5774 5773 5772 5771 5771 5770 5769 5768 5767 5766 5765 5765 5764 5763 5762 5761 5761 5760
5801 5800 5798 5797 5796 5795 5793 5792 5790 5789 5787 5786 5784 5783 5781 5780 5779 5777 5776 5775 5773 5772 5771 5770 5770 5769 5768 5767 5766 5765 5764 5763 5762 5761 5760 5759 5758 5758 5757 5756 5755 5754 5753
5795 5794 5793 5791 5790 5788 5787 5785 5784 5783 5781 5780 5779 5777 5776 5774 5773 5772 5770 5769 5768 5767 5766 5765 5764 5763 5762 5761 5760 5759 5758 5757 5756 5755 5754 5753 5752 5751 5750 5749 5748 5747 5747
5788 5787 5786 5784 5783 5781 5780 5779 5777 5776 5775 5774 5772 5771 5770 5769 5767 5766 5764 5763 5762 5761 5760 5759 5758 5757 5756 5755 5754 5753 5752 5751 5750 5749 5748 5747 5746 5744 5743 5742 5742 5741 5740
5781 5780 5778 5777 5776 5774 5773 5772 5771 5769 5768 5767 5766 5765 5763 5762 5761 5760 5759 5757 5756 5755 5754 5753 5752 5751 5750 5749 5748 5746 5745 5744 5742 5741 5741 5740 5738 5737 5736 5735 5734 5733 5732
5773 5772 5770 5769 5768 5766 5765 5764 5763 5762 5761 5760 5759 5758 5757 5756 5754 5753 5752 5751 5750 5749 5748 5746 5745 5744 5743 5742 5741 5739 5738 5736 5735 5734 5733 5732 5731 5730 5729 5727 5727 5726 5725
5764 5763 5762 5761 5760 5758 5757 5756 5756 5755 5754 5753 5752 5751 5750 5748 5747 5746 5745 5744 5743 5742 5741 5739 5738 5737 5736 5734 5733 5732 5730 5729 5727 5726 5725 5724 5723 5722 5721 5720 5719 5718 5716
5755 5754 5753 5752 5751 5750 5749 5748 5747 5746 5745 5744 5743 5742 5741 5740 5739 5738 5737 5736 5735 5734 5733 5731 5730 5729 5728 5726 5725 5723 5722 5720 5719 5718 5717 5715 5714 5714 5713 5712 5711 5710 5708
5745 5745 5744 5743 5742 5741 5740 5739 5738 5737 5736 5735 5735 5734 5733 5732 5731 5730 5729 5727 5726 5725 5724 5723 5722 5720 5719 5718 5716 5714 5713 5712 5711 5709 5708 5707 5706 5705 5704 5703 5702 5701 5699
5735 5734 5733 5732 5732 5731 5730 5729 5728 5728 5727 5726 5725 5724 5723 5722 5721 5720 5719 5718 5717 5716 5715 5713 5712 5711 5710 5709 5707 5705 5704 5703 5701 5700 5699 5698 5697 5696 5695 5694 5692 5691 5690